Regional Weather Roundup
Issued by NWS

Home | Current Version | Previous Version | Text Only | Print | Product List | Glossary On
Versions: 1 2 3 4 5 6 7 8 9 10 11 12 13 14 15 16 17 18 19 20 21 22 23 24 25 26 27 28 29 30 31 32 33 34 35 36 37 38 39 40 41 42 43 44 45 46 47 48 49 50
000
ASUS46 KSEW 302310
RWRWA

WASHINGTON REGIONAL WEATHER ROUNDUP
NATIONAL WEATHER SERVICE SEATTLE WA
400 PM PDT WED JUL 30 2014

NOTE:"FAIR" INDICATES FEW OR NO CLOUDS BELOW 12,000 FEET WITH NO
SIGNIFICANT WEATHER AND/OR OBSTRUCTIONS TO VISIBILITY.

WAZ505-507>509-310000-
SEATTLE, TACOMA, EVERETT, AND VICINITY

CITY           SKY/WX    TMP DP  RH WIND       PRES   REMARKS
EVERETT        SUNNY     74  53  48 N8        30.14S
BOEING FIELD   SUNNY     84  51  31 NW10G16   30.10F
RENTON         SUNNY     83  54  36 NW15      30.09F
SEATAC AIRPORT MOSUNNY   83  49  30 N12       30.12F
JBLM-MCCHORD   SUNNY     84  52  32 N9        30.11F
PUYALLUP       FAIR      84  54  34 NW3       30.12F
JBLM-FT LEWIS  SUNNY     83  52  33 VRB7      30.10F
TACOMA NARROWS SUNNY     83  54  36 N6        30.10F
$$

WAZ001-503-506-510-514-515-310000-
NORTH INTERIOR

CITY           SKY/WX    TMP DP  RH WIND       PRES   REMARKS
BELLINGHAM     SUNNY     77  60  55 S5        30.11F
FRIDAY HARBOR  SUNNY     69  55  60 E3        30.13F
EASTSOUND      SUNNY     70  59  68 CALM      30.10F
PORT ANGELES   SUNNY     72  53  51 NW13      30.15F
NAS WHIDBEY    MOSUNNY   62  53  72 W8        30.14F
BURLINGTON     SUNNY     79  61  53 W7        30.13F
$$

WAZ020-022-039-040-504-511-512-310000-
SOUTHWEST INTERIOR

CITY           SKY/WX    TMP DP  RH WIND       PRES   REMARKS
SHELTON        SUNNY     87  56  34 MISG      30.07F
OLYMPIA        SUNNY     85  52  32 NW8       30.10F
CHEHALIS       FAIR      88  59  37 NE13      30.08F
KELSO          SUNNY     88  54  31 N14       30.08F
VANCOUVER      SUNNY     86  57  37 NW10      30.03F
SCAPPOOSE, OR  SUNNY     89  55  31 NW12      30.02F
PORTLAND, OR   MOSUNNY   87  61  41 N8        30.03F
$$

WAZ021-516-517-310000-
WASHINGTON COAST

CITY           SKY/WX    TMP DP  RH WIND       PRES   REMARKS
FORKS          SUNNY     73  50  44 NW13      30.17S
HOQUIAM        SUNNY     73  55  53 W13       30.13F
ASTORIA, OR    SUNNY     70  56  61 NW21      30.11F
$$

WAZ019-023-024-040-518-519-310000-
CASCADE MOUNTAINS AND COLUMBIA GORGE

CITY           SKY/WX    TMP DP  RH WIND       PRES   REMARKS
STAMPEDE PASS  NOT AVBL
TROUTDALE, OR  SUNNY     85  59  41 VRB6      30.01F
THE DALLES, OR SUNNY     96  53  23 NW17G26   29.91F HX  93
$$

WAZ026-027-041>044-520-521-310000-
EAST SLOPES

CITY           SKY/WX    TMP DP  RH WIND       PRES   REMARKS
OMAK           SUNNY    102  31   8 S6        29.91F HX  95
WENATCHEE      SUNNY    102  33   9 CALM      29.92F HX  96
ELLENSBURG     SUNNY     99  42  14 NW16      30.00F HX  94
YAKIMA         SUNNY    103  37  10 NE5       29.94F HX  97
$$

WAZ028-034-035-310000-
COLUMBIA BASIN

CITY           SKY/WX    TMP DP  RH WIND       PRES   REMARKS
EPHRATA        SUNNY    103  22   5 S10       29.94F HX  95
MOSES LAKE     SUNNY    102  37  10 S8        29.95F HX  96
PASCO          MOSUNNY  104  51  17 VRB3      29.89F HX 101
HERMISTON, OR  MOSUNNY  101  46  15 N6        29.90F HX  97
$$

WAZ036>038-310000-
NORTHEAST WASHINGTON

CITY           SKY/WX    TMP DP  RH WIND       PRES   REMARKS
SPOKANE GEIGER MOSUNNY   97  36  12 SW7       30.02F HX  92
SPOKANE FELTS  SUNNY     99  36  11 CALM      30.00F HX  93
FAIRCHILD AFB  NOT AVBL
COEURDALENE,ID SUNNY     97  48  19 W6        29.99F HX  93
DEER PARK        N/A     97  39  13 W7        30.00F HX  92
$$

WAZ029>033-310000-
SOUTHEAST WASHINGTON

CITY           SKY/WX    TMP DP  RH WIND       PRES   REMARKS
PULLMAN        SUNNY     95  38  13 SW9       30.06F HX  90
LEWISTON, ID   SUNNY    103  37  10 N5        29.95F HX  97
WALLA WALLA    SUNNY    102  40  12 VRB6G17   29.95F HX  97
PENDLETON, OR  MOSUNNY  102  40  12 N13       29.95F HX  97
$$



USA.gov is the U.S. government's official web portal to all federal, state and local government web resources and services.